Location: ČR
(50.0000°N, 15.0000°E)
Time: 15:04:15
(UTC+00:00)

Explorer 7 - Pass Details

Date: 21 October 2021
Orbit: 483 x 675 km, 50.3° (Epoch: 27 November)

Event Time Altitude Azimuth Distance (km) Brightness Sun altitude
Rises 03:16:08 0° 286° (WNW) 2,911 - -22.4°
Reaches altitude 10° 03:18:38 10° 275° (W) 2,030 - -22.0°
Maximum altitude 03:22:41 29° 216° (SW) 1,193 - -21.3°
Exits shadow 03:23:29 28° 197° (SSW) 1,241 8.3 -21.2°
Drops below altitude 10° 03:26:51 10° 156° (SSE) 2,088 9.9 -20.7°
Sets 03:29:27 0° 146° (SE) 3,009 10.9 -20.3°
